QPF
0.02 0.01 0.01 0.01 0.01 0.01 0.02 0.03 0.03 0.04 0.15 0.19 0.05 0.01 0.00 0.00 0.00 0.00 0.00 0.00 0.01 0.01 0.01 0.00 0.00 0.00 0.01 0.02 0.01 0.00 0.00 0.00 0.00 0.00 0.00 0.00 0.00 0.00 0.00 0.00 0.00 0.00 0.00 0.00 0.00 0.00 0.00
0.01 0.00 0.01 0.01 0.01 0.00 0.01 0.02 0.01 0.02 0.09 0.16 0.12 0.04 0.00 0.00 0.00 0.00 0.01 0.02 0.04 0.03 0.02 0.00 0.00 0.02 0.01 0.02 0.00 0.00 0.00 0.00 0.00 0.00 0.00 0.00 0.00 0.00 0.00 0.00 0.00 0.00 0.00 0.00 0.00 0.00 0.00
0.01 0.01 0.00 0.01 0.01 0.00 0.01 0.01 0.01 0.02 0.08 0.10 0.08 0.03 0.00 0.00 0.00 0.00 0.00 0.00 0.01 0.02 0.00 0.00 0.00 0.03 0.02 0.03 0.00 0.00 0.00 0.00 0.00 0.00 0.00 0.00 0.00 0.00 0.00 0.00 0.00 0.00 0.00 0.00 0.00 0.00 0.00
0.00 0.01 0.01 0.00 0.00 0.00 0.00 0.00 0.01 0.01 0.05 0.09 0.03 0.01 0.00 0.00 0.00 0.00 0.01 0.01 0.00 0.00 0.00 0.00 0.00 0.03 0.04 0.01 0.00 0.00 0.00 0.00 0.00 0.00 0.00 0.00 0.00 0.00 0.00 0.00 0.00 0.00 0.00 0.00 0.00 0.00 0.00
0.00 0.01 0.01 0.00 0.00 0.00 0.00 0.00 0.00 0.00 0.02 0.05 0.04 0.01 0.00 0.00 0.00 0.01 0.00 0.00 0.01 0.01 0.01 0.00 0.01 0.02 0.03 0.01 0.00 0.00 0.00 0.00 0.00 0.00 0.00 0.00 0.00 0.00 0.00 0.00 0.00 0.00 0.00 0.00 0.00 0.00 0.00
0.01 0.00 0.01 0.00 0.00 0.00 0.00 0.00 0.00 0.00 0.00 0.01 0.03 0.01 0.00 0.00 0.00 0.00 0.02 0.01 0.01 0.02 0.02 0.01 0.01 0.01 0.01 0.00 0.00 0.00 0.00 0.00 0.00 0.00 0.00 0.00 0.00 0.00 0.00 0.00 0.00 0.00 0.00 0.00 0.00 0.00 0.00
0.01 0.00 0.01 0.00 0.00 0.00 0.00 0.00 0.00 0.00 0.00 0.00 0.00 0.00 0.00 0.00 0.00 0.00 0.04 0.04 0.01 0.00 0.00 0.01 0.00 0.01 0.00 0.00 0.00 0.00 0.00 0.00 0.00 0.00 0.00 0.00 0.00 0.00 0.00 0.00 0.00 0.00 0.00 0.00 0.00 0.00 0.00
0.01 0.01 0.00 0.00 0.00 0.00 0.00 0.00 0.00 0.00 0.00 0.00 0.01 0.00 0.00 0.00 0.00 0.00 0.00 0.01 0.00 0.00 0.00 0.00 0.00 0.00 0.00 0.00 0.00 0.00 0.00 0.00 0.00 0.00 0.00 0.00 0.00 0.00 0.00 0.00 0.00 0.00 0.00 0.00 0.00 0.00 0.00
0.00 0.01 0.00 0.00 0.00 0.00 0.00 0.01 0.02 0.00 0.00 0.00 0.02 0.01 0.00 0.00 0.00 0.00 0.00 0.00 0.00 0.00 0.00 0.00 0.00 0.00 0.00 0.00 0.00 0.00 0.00 0.00 0.00 0.00 0.00 0.00 0.00 0.00 0.00 0.00 0.00 0.00 0.00 0.00 0.00 0.00 0.00
0.00 0.01 0.01 0.00 0.00 0.00 0.00 0.00 0.02 0.02 0.00 0.00 0.01 0.01 0.00 0.00 0.00 0.00 0.00 0.00 0.00 0.00 0.00 0.00 0.00 0.00 0.00 0.00 0.00 0.00 0.00 0.00 0.00 0.00 0.00 0.00 0.00 0.00 0.00 0.00 0.00 0.00 0.00 0.00 0.00 0.00 0.00
0.00 0.00 0.00 0.00 0.00 0.00 0.00 0.01 0.01 0.01 0.00 0.00 0.00 0.00 0.00 0.00 0.00 0.00 0.00 0.00 0.00 0.00 0.00 0.00 0.00 0.00 0.00 0.00 0.00 0.00 0.00 0.00 0.00 0.00 0.00 0.00 0.00 0.00 0.00 0.00 0.00 0.00 0.00 0.00 0.00 0.00 0.00
0.01 0.00 0.00 0.00 0.00 0.00 0.00 0.00 0.01 0.01 0.00 0.00 0.00 0.00 0.00 0.00 0.00 0.00 0.00 0.00 0.00 0.00 0.00 0.00 0.00 0.00 0.00 0.00 0.00 0.00 0.00 0.00 0.00 0.00 0.00 0.00 0.00 0.00 0.00 0.00 0.00 0.00 0.00 0.00 0.00 0.00 0.00
0.00 0.00 0.00 0.00 0.00 0.00 0.00 0.00 0.00 0.00 0.00 0.00 0.00 0.00 0.00 0.00 0.00 0.00 0.00 0.00 0.00 0.00 0.00 0.01 0.01 0.00 0.00 0.00 0.00 0.00 0.00 0.00 0.00 0.00 0.00 0.00 0.00 0.00 0.00 0.00 0.00 0.00 0.00 0.00 0.00 0.00 0.00
0.00 0.00 0.00 0.00 0.00 0.00 0.00 0.00 0.00 0.00 0.00 0.00 0.00 0.00 0.00 0.00 0.00 0.00 0.00 0.00 0.00 0.01 0.00 0.00 0.00 0.00 0.00 0.00 0.00 0.00 0.00 0.00 0.00 0.00 0.00 0.00 0.00 0.00 0.00 0.00 0.00 0.00 0.00 0.00 0.00 0.00 0.00
0.00 0.00 0.00 0.00 0.00 0.00 0.00 0.00 0.00 0.00 0.00 0.00 0.00 0.00 0.00 0.00 0.00 0.00 0.00 0.00 0.01 0.00 0.00 0.00 0.00 0.00 0.00 0.00 0.00 0.00 0.00 0.00 0.00 0.00 0.00 0.00 0.00 0.00 0.00 0.00 0.00 0.00 0.00 0.00 0.00 0.00 0.00
0.00 0.00 0.00 0.00 0.00 0.00 0.00 0.00 0.00 0.00 0.00 0.00 0.00 0.00 0.00 0.00 0.00 0.00 0.00 0.00 0.00 0.00 0.00 0.00 0.00 0.00 0.00 0.00 0.00 0.00 0.00 0.00 0.00 0.00 0.00 0.00 0.00 0.00 0.00 0.00 0.00 0.00 0.00 0.00 0.00 0.00 0.00
0.00 0.00 0.00 0.00 0.00 0.00 0.00 0.00 0.00 0.00 0.00 0.00 0.00 0.00 0.00 0.00 0.00 0.00 0.00 0.00 0.00 0.00 0.00 0.00 0.00 0.00 0.00 0.00 0.00 0.00 0.00 0.00 0.00 0.00 0.00 0.00 0.00 0.00 0.00 0.00 0.00 0.00 0.00 0.00 0.00 0.00 0.00
0.00 0.00 0.00 0.00 0.00 0.00 0.00 0.00 0.00 0.00 0.00 0.00 0.00 0.00 0.00 0.00 0.00 0.00 0.00 0.00 0.00 0.00 0.00 0.00 0.00 0.00 0.00 0.00 0.00 0.00 0.00 0.00 0.00 0.00 0.00 0.00 0.00 0.00 0.00 0.00 0.00 0.00 0.00 0.00 0.00 0.00 0.00
0.00 0.00 0.00 0.00 0.00 0.00 0.00 0.00 0.00 0.00 0.00 0.00 0.00 0.00 0.00 0.00 0.00 0.00 0.00 0.00 0.00 0.00 0.00 0.00 0.00 0.00 0.00 0.00 0.00 0.00 0.00 0.00 0.00 0.00 0.00 0.00 0.00 0.00 0.00 0.00 0.00 0.00 0.00 0.00 0.00 0.00 0.00
0.00 0.00 0.00 0.00 0.00 0.00 0.00 0.00 0.00 0.00 0.00 0.00 0.00 0.00 0.00 0.00 0.00 0.00 0.00 0.00 0.00 0.00 0.00 0.00 0.00 0.00 0.00 0.00 0.00 0.00 0.00 0.00 0.00 0.00 0.00 0.00 0.00 0.00 0.00 0.00 0.00 0.00 0.00 0.00 0.00 0.00 0.00
0.00 0.00 0.00 0.00 0.00 0.00 0.00 0.00 0.00 0.00 0.00 0.00 0.00 0.00 0.00 0.00 0.00 0.00 0.00 0.00 0.00 0.00 0.00 0.00 0.00 0.00 0.00 0.00 0.00 0.00 0.00 0.00 0.00 0.00 0.00 0.00 0.00 0.00 0.00 0.00 0.00 0.00 0.00 0.00 0.00 0.00 0.00
0.00 0.00 0.00 0.00 0.00 0.00 0.00 0.00 0.00 0.00 0.00 0.00 0.00 0.00 0.00 0.00 0.00 0.00 0.00 0.00 0.00 0.00 0.00 0.00 0.00 0.00 0.00 0.00 0.00 0.00 0.00 0.00 0.00 0.00 0.00 0.00 0.00 0.00 0.00 0.00 0.00 0.00 0.00 0.00 0.00 0.00 0.00
0.00 0.00 0.00 0.00 0.00 0.00 0.00 0.00 0.00 0.00 0.00 0.00 0.00 0.00 0.00 0.00 0.00 0.00 0.00 0.00 0.00 0.00 0.00 0.00 0.00 0.00 0.00 0.00 0.00 0.00 0.00 0.00 0.00 0.00 0.00 0.00 0.00 0.00 0.00 0.00 0.00 0.00 0.00 0.00 0.00 0.00 0.00
0.00 0.00 0.00 0.00 0.00 0.00 0.00 0.00 0.00 0.00 0.00 0.00 0.00 0.00 0.00 0.00 0.00 0.00 0.00 0.00 0.00 0.00 0.00 0.00 0.00 0.00 0.00 0.00 0.00 0.00 0.00 0.00 0.00 0.00 0.00 0.00 0.00 0.00 0.00 0.00 0.00 0.00 0.00 0.00 0.00 0.00 0.00
0.00 0.00 0.00 0.00 0.00 0.00 0.00 0.00 0.00 0.00 0.00 0.00 0.00 0.00 0.00 0.00 0.00 0.00 0.00 0.00 0.00 0.00 0.00 0.00 0.00 0.00 0.00 0.00 0.00 0.00 0.00 0.00 0.00 0.00 0.00 0.00 0.00 0.00 0.00 0.00 0.00 0.00 0.00 0.00 0.00 0.00 0.00
0.00 0.00 0.00 0.00 0.00 0.00 0.00 0.00 0.00 0.00 0.00 0.00 0.00 0.00 0.00 0.00 0.00 0.00 0.00 0.00 0.00 0.00 0.00 0.00 0.00 0.00 0.00 0.00 0.00 0.00 0.00 0.00 0.00 0.00 0.00 0.00 0.00 0.00 0.00 0.00 0.00 0.00 0.00 0.00 0.00 0.00 0.00
0.00 0.00 0.00 0.00 0.00 0.00 0.00 0.00 0.00 0.00 0.00 0.00 0.00 0.00 0.00 0.00 0.00 0.00 0.00 0.00 0.00 0.00 0.00 0.00 0.00 0.00 0.00 0.00 0.00 0.00 0.00 0.00 0.00 0.00 0.00 0.00 0.00 0.00 0.00 0.00 0.00 0.00 0.00 0.00 0.00 0.00 0.00
0.00 0.00 0.00 0.00 0.00 0.00 0.00 0.00 0.00 0.00 0.00 0.00 0.00 0.00 0.00 0.00 0.00 0.00 0.00 0.00 0.00 0.00 0.00 0.00 0.00 0.00 0.00 0.00 0.00 0.00 0.00 0.00 0.00 0.00 0.00 0.00 0.00 0.00 0.00 0.00 0.00 0.00 0.00 0.00 0.00 0.00 0.00
0.00 0.00 0.00 0.00 0.00 0.00 0.00 0.00 0.00 0.00 0.00 0.00 0.00 0.00 0.00 0.00 0.00 0.00 0.00 0.00 0.00 0.00 0.00 0.00 0.00 0.00 0.00 0.00 0.00 0.00 0.00 0.00 0.00 0.00 0.00 0.00 0.00 0.00 0.00 0.00 0.00 0.00 0.00 0.00 0.00 0.00 0.00
MSLP
1017.82 1017.30 1016.73 1015.97 1015.19 1014.19 1012.84 1011.35 1010.75 1010.58 1010.66 1011.70 1012.26 1012.56 1012.86 1013.05 1013.13 1013.30 1013.52 1013.56 1013.71 1013.90 1014.10 1014.24 1014.22 1014.58 1014.74 1015.12 1014.70 1014.16 1013.81 1013.91 1014.20 1014.12 1013.65 1013.25 1013.43 1013.39 1013.76 1014.33 1014.93 1015.06 1015.37 1015.89 1016.01 1016.37 1016.43
1018.05 1017.61 1017.06 1016.40 1015.50 1014.53 1013.37 1012.15 1011.44 1011.08 1011.18 1011.78 1012.32 1012.60 1012.86 1013.18 1013.46 1013.64 1013.74 1013.80 1013.92 1013.98 1014.14 1014.16 1014.38 1014.60 1014.80 1015.29 1015.07 1014.24 1013.91 1014.14 1014.21 1014.13 1013.82 1013.58 1013.39 1013.58 1014.18 1014.86 1015.20 1015.43 1015.83 1016.16 1016.30 1016.39 1016.38
1018.35 1017.91 1017.47 1016.73 1015.89 1015.03 1014.06 1013.26 1012.53 1012.18 1012.04 1012.31 1012.62 1012.95 1013.24 1013.50 1013.70 1013.93 1014.10 1014.15 1014.21 1014.32 1014.46 1014.42 1014.65 1014.66 1014.82 1015.52 1015.42 1014.29 1014.48 1014.33 1014.36 1014.25 1014.30 1014.14 1013.92 1013.99 1014.81 1015.68 1015.94 1016.16 1016.31 1016.43 1016.42 1016.52 1016.47
1018.68 1018.21 1017.82 1017.11 1016.36 1015.58 1014.85 1014.16 1013.76 1013.30 1013.29 1013.44 1013.45 1013.47 1013.67 1013.84 1014.03 1014.21 1014.37 1014.48 1014.70 1014.82 1014.89 1014.76 1014.80 1014.75 1015.39 1015.78 1015.60 1015.50 1015.18 1014.72 1014.77 1014.77 1015.01 1015.00 1014.84 1014.92 1015.18 1016.20 1016.26 1016.27 1016.38 1016.26 1016.61 1016.66 1016.77
1018.92 1018.55 1018.15 1017.58 1017.03 1016.32 1015.68 1015.10 1014.63 1014.34 1014.30 1014.16 1014.00 1013.97 1014.09 1014.17 1014.46 1014.67 1014.77 1014.88 1015.04 1015.19 1015.15 1015.02 1015.10 1015.22 1016.13 1016.19 1016.38 1016.11 1015.60 1015.24 1015.58 1015.68 1015.66 1015.64 1015.49 1015.86 1016.17 1016.29 1016.48 1016.40 1016.32 1016.16 1016.38 1016.54 1016.77
1019.10 1018.85 1018.50 1017.97 1017.60 1017.08 1016.46 1015.88 1015.58 1015.19 1014.83 1014.77 1014.67 1014.67 1014.82 1014.89 1014.99 1014.99 1014.72 1015.01 1015.49 1015.54 1015.48 1014.89 1015.51 1015.93 1016.62 1016.81 1016.35 1016.05 1015.43 1015.57 1015.82 1016.04 1016.03 1016.21 1016.28 1016.33 1016.27 1016.55 1016.72 1016.47 1016.41 1016.39 1016.42 1016.80 1016.93
1019.35 1019.14 1018.81 1018.40 1018.02 1017.71 1017.16 1016.61 1016.03 1015.69 1015.46 1015.39 1015.31 1015.33 1015.23 1015.10 1015.25 1015.34 1015.16 1015.43 1016.09 1016.68 1016.94 1016.59 1017.03 1017.03 1017.13 1017.30 1016.88 1015.84 1015.67 1015.73 1015.91 1015.96 1016.29 1016.83 1017.00 1016.88 1016.91 1017.18 1016.97 1016.70 1016.59 1016.63 1016.62 1016.64 1017.03
1019.64 1019.31 1018.99 1018.76 1018.40 1018.08 1017.67 1017.16 1016.63 1016.18 1015.88 1015.76 1015.74 1015.71 1015.58 1015.57 1015.53 1015.58 1015.35 1015.71 1016.53 1016.90 1017.69 1017.94 1017.72 1017.81 1018.02 1017.86 1017.00 1016.47 1016.01 1016.18 1016.04 1016.30 1016.72 1017.36 1017.46 1017.62 1017.72 1017.74 1017.45 1017.21 1016.99 1016.87 1016.90 1017.12 1017.33
1019.86 1019.44 1019.24 1019.02 1018.78 1018.36 1017.99 1017.43 1016.95 1016.63 1016.36 1016.18 1016.15 1016.05 1016.00 1015.89 1015.77 1015.99 1016.15 1016.62 1016.75 1016.57 1017.98 1019.26 1019.32 1019.09 1019.02 1018.32 1017.74 1017.25 1016.62 1016.14 1016.04 1016.66 1016.95 1017.34 1017.96 1018.11 1017.97 1018.04 1017.74 1017.43 1017.23 1017.29 1017.78 1017.54 1016.82
1020.02 1019.54 1019.28 1019.05 1018.78 1018.42 1017.95 1017.51 1017.05 1016.74 1016.63 1016.47 1016.31 1016.07 1016.23 1016.17 1016.42 1016.53 1016.78 1017.17 1017.05 1016.87 1018.15 1020.06 1019.87 1019.97 1019.42 1018.57 1018.19 1017.35 1017.04 1016.68 1016.34 1016.73 1017.15 1017.82 1018.32 1018.22 1018.19 1018.26 1018.05 1017.58 1017.70 1017.92 1018.22 1018.30 1018.03
1020.33 1019.95 1019.53 1019.32 1018.93 1018.54 1017.93 1017.42 1017.10 1016.81 1016.59 1016.54 1016.47 1016.49 1016.50 1016.23 1016.84 1016.94 1017.31 1017.33 1017.24 1017.04 1018.34 1020.51 1020.04 1020.20 1019.34 1018.75 1018.44 1017.78 1017.39 1016.89 1016.74 1016.94 1017.42 1018.31 1018.42 1018.38 1018.13 1018.18 1018.10 1018.15 1018.28 1018.25 1018.50 1018.77 1018.92
1020.62 1020.14 1019.81 1019.39 1019.00 1018.59 1018.06 1017.51 1017.10 1016.84 1016.65 1016.49 1016.46 1016.52 1016.53 1016.41 1016.72 1017.26 1017.28 1017.25 1017.32 1017.54 1018.94 1020.00 1019.85 1019.50 1018.56 1018.00 1017.68 1017.59 1017.14 1016.84 1017.02 1017.18 1017.59 1018.26 1018.35 1018.34 1018.09 1018.10 1018.24 1018.29 1018.20 1018.45 1018.79 1019.00 1018.94
1020.84 1020.39 1020.10 1019.65 1019.17 1018.58 1018.07 1017.49 1017.05 1016.72 1016.65 1016.50 1016.37 1016.40 1016.31 1016.32 1017.00 1017.27 1017.30 1017.22 1017.10 1017.34 1019.50 1019.54 1019.12 1018.89 1017.84 1017.69 1017.45 1017.03 1017.03 1017.13 1017.14 1017.65 1018.23 1018.33 1018.32 1018.21 1018.26 1018.03 1018.27 1018.46 1018.84 1018.74 1019.07 1018.92 1018.42
1020.97 1020.50 1020.10 1019.77 1019.31 1018.70 1018.10 1017.47 1016.96 1016.54 1016.46 1016.57 1016.45 1016.35 1016.54 1016.54 1017.11 1017.26 1017.14 1017.12 1016.97 1018.34 1018.21 1018.57 1018.23 1017.89 1017.39 1017.14 1017.31 1017.03 1016.71 1016.88 1017.06 1016.86 1017.80 1017.98 1018.34 1017.90 1017.90 1017.75 1017.95 1018.67 1019.14 1019.01 1019.04 1018.55 1018.12
1021.20 1020.60 1020.14 1019.83 1019.49 1018.90 1018.30 1017.62 1016.99 1016.52 1016.38 1016.51 1016.62 1016.53 1016.35 1016.54 1016.81 1017.14 1017.37 1016.82 1017.69 1017.70 1017.21 1016.90 1016.70 1016.61 1016.69 1016.70 1016.59 1016.44 1016.31 1016.45 1016.72 1016.77 1017.12 1017.61 1017.84 1017.58 1017.66 1017.46 1017.93 1018.51 1018.86 1018.91 1019.28 1018.38 1018.54
1021.38 1020.85 1020.38 1019.94 1019.48 1018.95 1018.32 1017.71 1017.16 1016.65 1016.35 1016.34 1016.31 1016.00 1016.33 1016.57 1016.88 1016.96 1016.72 1016.66 1017.10 1016.61 1016.48 1016.17 1015.74 1015.46 1015.74 1016.05 1015.97 1015.95 1016.04 1016.45 1016.58 1016.70 1016.68 1016.91 1017.24 1017.22 1017.41 1017.68 1017.66 1017.76 1018.34 1018.89 1019.10 1018.81 1017.95
1021.52 1021.09 1020.67 1020.14 1019.59 1019.06 1018.36 1017.65 1017.25 1016.78 1016.26 1016.15 1016.10 1015.75 1016.46 1016.59 1016.88 1016.39 1016.78 1016.91 1016.94 1016.71 1016.26 1015.65 1015.02 1014.89 1015.17 1015.33 1015.13 1015.38 1015.91 1016.42 1016.29 1016.71 1016.85 1016.73 1016.69 1017.22 1017.34 1017.09 1016.73 1017.68 1017.74 1018.14 1018.28 1018.46 1018.19
1021.83 1021.36 1020.95 1020.46 1019.93 1019.26 1018.54 1017.73 1017.04 1016.69 1016.23 1016.45 1015.29 1015.73 1016.04 1016.48 1016.77 1016.85 1017.04 1016.81 1016.73 1016.24 1015.71 1015.29 1014.94 1014.86 1014.98 1014.87 1014.97 1015.15 1015.63 1015.99 1016.38 1016.63 1016.60 1017.05 1017.09 1016.86 1016.56 1016.17 1016.26 1016.55 1016.78 1017.16 1017.82 1018.11 1017.90
1022.06 1021.63 1021.22 1020.77 1020.19 1019.53 1018.83 1017.98 1017.23 1016.52 1016.29 1016.12 1015.72 1015.37 1015.15 1015.53 1016.51 1016.69 1016.65 1016.65 1016.42 1015.89 1015.69 1015.13 1015.06 1015.03 1014.98 1014.85 1015.11 1015.33 1015.77 1016.31 1016.53 1016.65 1017.01 1017.27 1017.20 1017.09 1016.70 1016.76 1016.56 1016.50 1016.40 1016.84 1017.32 1017.81 1017.58
1022.19 1021.82 1021.50 1021.06 1020.53 1019.85 1019.12 1018.25 1017.51 1016.78 1016.22 1016.42 1015.96 1015.93 1015.69 1015.71 1016.24 1016.16 1016.10 1016.06 1016.08 1015.94 1015.58 1015.25 1015.14 1014.99 1014.86 1014.94 1014.91 1015.35 1015.84 1016.39 1016.63 1016.85 1017.24 1017.46 1017.24 1017.30 1017.02 1016.44 1016.14 1016.08 1015.94 1016.18 1016.94 1017.50 1016.38
1022.31 1022.06 1021.69 1021.41 1020.83 1020.22 1019.49 1018.63 1017.70 1016.95 1016.28 1016.21 1016.38 1017.17 1017.15 1016.50 1016.42 1016.10 1015.85 1015.94 1016.01 1015.94 1015.74 1015.56 1015.25 1015.10 1014.96 1014.96 1015.14 1015.49 1015.82 1016.38 1016.75 1016.95 1017.26 1017.47 1017.47 1017.18 1016.92 1016.31 1015.91 1015.53 1015.40 1015.53 1015.76 1015.56 1015.43
1022.41 1022.16 1021.88 1021.58 1021.29 1020.58 1019.98 1019.19 1018.20 1017.16 1016.24 1016.46 1017.20 1017.67 1017.34 1016.94 1016.78 1016.27 1016.16 1016.22 1016.08 1016.17 1016.17 1015.76 1015.66 1015.81 1015.67 1015.69 1015.96 1015.96 1016.09 1016.10 1016.16 1017.13 1017.35 1017.47 1017.58 1017.34 1016.71 1015.63 1015.40 1014.83 1014.17 1014.10 1014.03 1013.93 1013.87
1022.47 1022.26 1022.05 1021.73 1021.48 1021.10 1020.52 1019.89 1019.08 1018.02 1016.51 1017.30 1017.89 1017.82 1017.69 1017.39 1016.74 1016.41 1016.69 1016.61 1016.66 1016.75 1016.66 1016.58 1016.58 1016.52 1016.39 1016.84 1016.92 1016.87 1016.77 1016.58 1016.60 1016.69 1017.02 1017.51 1017.86 1018.07 1017.26 1016.16 1015.48 1013.85 1011.66 1011.91 1012.15 1011.99 1012.00
1022.46 1022.26 1022.12 1021.97 1021.67 1021.33 1020.86 1020.49 1019.92 1019.19 1018.65 1018.40 1018.74 1018.43 1017.85 1017.31 1016.87 1016.88 1016.76 1016.94 1016.97 1017.14 1017.23 1016.76 1016.74 1016.70 1017.05 1016.88 1016.72 1016.65 1016.79 1016.78 1016.78 1016.88 1017.21 1017.62 1018.17 1018.50 1018.06 1016.98 1015.26 1011.65 1010.93 1010.86 1010.99 1010.87 1010.93
1022.31 1022.29 1022.12 1022.07 1021.97 1021.59 1021.17 1020.65 1020.47 1020.05 1019.45 1018.81 1018.90 1019.01 1018.42 1017.65 1017.16 1017.01 1016.94 1016.88 1016.79 1016.88 1017.09 1016.81 1016.68 1016.96 1017.08 1017.03 1016.86 1016.49 1016.52 1016.61 1016.43 1016.80 1017.13 1017.52 1018.15 1018.56 1018.37 1017.21 1013.96 1011.27 1011.29 1011.04 1010.73 1010.05 1009.54
1022.28 1022.08 1022.11 1022.08 1021.98 1021.90 1021.56 1021.09 1020.55 1020.32 1020.05 1019.49 1019.60 1019.46 1019.13 1018.62 1017.51 1017.18 1017.14 1017.01 1016.99 1016.69 1016.79 1016.79 1017.00 1017.16 1017.32 1017.14 1016.99 1016.96 1016.62 1016.36 1016.60 1017.04 1017.38 1017.71 1018.20 1018.90 1018.09 1017.35 1014.56 1011.67 1011.08 1010.83 1010.67 1010.17 1008.85
1022.27 1022.10 1021.94 1021.95 1021.96 1021.82 1021.78 1021.52 1021.06 1020.59 1020.21 1020.13 1020.26 1020.06 1019.53 1018.88 1017.58 1017.31 1017.45 1017.51 1017.46 1017.55 1017.33 1017.00 1017.09 1017.38 1017.35 1017.37 1017.29 1016.89 1016.41 1016.21 1016.44 1016.45 1017.23 1017.79 1018.11 1018.08 1017.84 1016.76 1013.56 1011.02 1010.86 1010.86 1010.90 1009.86 1008.94
1022.18 1022.03 1021.95 1021.84 1021.90 1021.91 1021.77 1021.60 1021.39 1021.07 1020.56 1020.16 1020.49 1020.45 1020.54 1019.68 1018.28 1017.67 1017.56 1017.56 1017.81 1018.14 1018.03 1017.87 1017.94 1017.80 1017.74 1017.67 1017.34 1016.90 1016.80 1016.17 1015.97 1015.13 1015.17 1015.78 1016.37 1016.63 1016.53 1015.63 1012.85 1010.72 1011.02 1010.59 1009.10 1008.88 1008.77
1021.83 1021.83 1021.80 1021.74 1021.65 1021.82 1021.89 1021.71 1021.33 1021.24 1021.05 1020.50 1020.26 1020.25 1020.63 1020.54 1018.93 1018.24 1017.90 1017.74 1017.87 1018.18 1018.24 1017.97 1018.24 1017.94 1017.64 1017.82 1017.56 1017.12 1016.82 1016.16 1015.81 1015.36 1013.99 1014.19 1013.38 1013.67 1013.29 1011.40 1010.03 1009.71 1009.05 1008.68 1008.62 1008.80 1008.87
Thickness
5526 5514 5503 5496 5486 5475 5467 5464 5457 5451 5448 5442 5439 5437 5435 5434 5434 5436 5442 5451 5457 5462 5470 5479 5489 5495 5506 5516 5531 5545 5559 5568 5577 5588 5597 5605 5607 5616 5613 5617 5618 5619 5623 5623 5627 5627 5629
5520 5508 5498 5490 5482 5472 5465 5460 5455 5452 5447 5442 5438 5436 5433 5430 5428 5429 5435 5444 5450 5456 5462 5472 5480 5488 5499 5510 5521 5539 5550 5559 5568 5579 5590 5600 5606 5613 5610 5609 5611 5616 5616 5617 5620 5622 5625
5516 5504 5495 5488 5479 5470 5463 5454 5449 5446 5444 5440 5437 5434 5430 5426 5424 5425 5428 5436 5443 5449 5455 5464 5472 5481 5495 5504 5512 5532 5539 5551 5562 5572 5578 5592 5601 5604 5603 5595 5603 5604 5605 5607 5613 5617 5619
5515 5503 5494 5486 5479 5470 5461 5451 5444 5438 5434 5431 5431 5430 5428 5426 5425 5426 5430 5434 5439 5443 5448 5459 5468 5477 5487 5494 5508 5518 5528 5541 5554 5566 5571 5579 5589 5592 5597 5592 5596 5599 5602 5602 5605 5610 5611
5516 5503 5494 5487 5477 5468 5459 5449 5442 5435 5428 5426 5426 5426 5425 5426 5425 5426 5429 5433 5436 5439 5447 5456 5466 5474 5480 5490 5499 5508 5523 5533 5542 5551 5561 5570 5578 5578 5584 5585 5582 5594 5588 5604 5600 5606 5607
5517 5505 5496 5490 5478 5468 5460 5450 5440 5434 5429 5423 5421 5421 5420 5421 5423 5425 5430 5432 5433 5439 5444 5457 5462 5472 5475 5482 5497 5510 5524 5530 5535 5543 5552 5559 5565 5570 5579 5577 5570 5586 5587 5595 5595 5599 5596
5521 5508 5500 5493 5482 5471 5462 5453 5446 5436 5430 5423 5419 5417 5418 5420 5421 5422 5426 5429 5431 5433 5435 5446 5452 5463 5473 5480 5494 5512 5521 5525 5533 5543 5544 5550 5553 5557 5572 5570 5579 5582 5587 5585 5591 5598 5588
5524 5513 5505 5497 5488 5478 5467 5460 5451 5442 5434 5426 5421 5418 5418 5419 5421 5420 5426 5429 5428 5434 5432 5438 5453 5461 5467 5478 5496 5507 5520 5522 5531 5533 5541 5542 5548 5555 5560 5565 5571 5575 5580 5582 5588 5588 5584
5530 5519 5510 5502 5494 5486 5476 5469 5461 5452 5442 5434 5427 5424 5422 5423 5423 5423 5425 5428 5434 5444 5436 5434 5443 5454 5464 5482 5490 5498 5514 5525 5533 5533 5541 5542 5544 5549 5556 5550 5564 5568 5573 5573 5566 5577 5586
5537 5526 5517 5510 5502 5496 5489 5480 5473 5465 5456 5448 5441 5437 5432 5430 5430 5430 5431 5434 5439 5448 5450 5433 5447 5456 5470 5484 5486 5504 5510 5522 5532 5533 5538 5535 5538 5544 5547 5545 5556 5563 5567 5566 5564 5558 5550
5542 5532 5522 5515 5509 5504 5500 5494 5485 5478 5472 5465 5458 5453 5447 5445 5438 5440 5440 5442 5448 5457 5466 5440 5454 5458 5472 5484 5490 5500 5510 5520 5528 5532 5536 5526 5531 5536 5545 5546 5554 5553 5558 5560 5561 5559 5554
5548 5541 5530 5523 5518 5513 5509 5506 5500 5493 5486 5480 5475 5469 5465 5461 5457 5451 5452 5455 5459 5474 5467 5453 5462 5471 5489 5498 5502 5506 5515 5525 5528 5531 5533 5529 5537 5539 5545 5549 5550 5555 5557 5557 5558 5554 5552
5555 5548 5538 5529 5525 5523 5519 5516 5512 5507 5501 5496 5490 5484 5482 5479 5473 5468 5468 5471 5483 5483 5457 5467 5475 5479 5500 5503 5507 5516 5517 5520 5523 5510 5505 5529 5535 5541 5543 5547 5550 5550 5545 5550 5546 5549 5542
5562 5556 5550 5539 5534 5531 5529 5527 5524 5521 5514 5509 5504 5499 5493 5490 5484 5482 5484 5488 5494 5479 5478 5479 5491 5500 5505 5512 5510 5515 5524 5521 5529 5539 5522 5531 5513 5542 5547 5549 5547 5542 5541 5543 5545 5562 5560
5566 5564 5559 5552 5543 5540 5537 5536 5534 5531 5527 5520 5515 5511 5509 5504 5499 5496 5493 5499 5488 5489 5505 5509 5514 5513 5513 5516 5522 5527 5533 5533 5537 5541 5538 5530 5526 5549 5550 5556 5552 5539 5541 5550 5536 5557 5535
5571 5569 5565 5561 5556 5552 5549 5547 5544 5540 5536 5532 5533 5531 5522 5516 5513 5510 5519 5512 5509 5518 5517 5521 5521 5529 5524 5525 5530 5534 5538 5538 5538 5545 5550 5550 5542 5553 5552 5553 5555 5554 5552 5541 5537 5545 5554
5576 5574 5570 5568 5565 5561 5560 5559 5555 5553 5549 5547 5547 5546 5529 5525 5522 5535 5518 5520 5521 5522 5526 5529 5537 5539 5539 5538 5547 5546 5542 5541 5548 5546 5550 5555 5558 5551 5553 5551 5557 5549 5550 5551 5553 5552 5551
5578 5576 5575 5572 5571 5570 5567 5568 5569 5566 5565 5556 5572 5548 5546 5537 5538 5540 5524 5532 5525 5535 5540 5542 5546 5547 5546 5552 5552 5553 5549 5550 5554 5554 5556 5553 5553 5546 5558 5568 5569 5566 5563 5562 5538 5553 5550
5578 5578 5577 5576 5575 5574 5574 5574 5576 5577 5575 5572 5576 5571 5568 5556 5546 5543 5546 5542 5545 5549 5547 5554 5552 5555 5557 5558 5554 5558 5556 5556 5557 5558 5553 5556 5556 5539 5558 5561 5566 5560 5565 5563 5561 5547 5540
5578 5578 5578 5578 5578 5578 5579 5581 5581 5583 5584 5580 5582 5558 5570 5567 5561 5563 5559 5558 5555 5555 5559 5563 5562 5565 5566 5565 5570 5563 5562 5561 5562 5563 5557 5558 5564 5556 5546 5565 5570 5564 5566 5565 5555 5526 5558
5578 5576 5577 5577 5578 5580 5582 5585 5587 5588 5589 5589 5583 5567 5565 5570 5568 5571 5573 5569 5565 5563 5567 5569 5570 5571 5573 5573 5574 5570 5572 5565 5565 5563 5562 5562 5556 5563 5563 5568 5569 5568 5569 5569 5560 5563 5557
5578 5576 5576 5576 5576 5578 5581 5585 5590 5593 5596 5589 5582 5575 5572 5576 5574 5576 5575 5571 5574 5571 5568 5572 5572 5572 5575 5575 5571 5574 5574 5574 5576 5563 5563 5563 5554 5564 5535 5577 5578 5572 5579 5581 5583 5582 5576
5575 5576 5574 5575 5575 5575 5577 5581 5585 5591 5599 5589 5581 5577 5576 5573 5582 5581 5573 5573 5572 5569 5570 5570 5568 5568 5574 5566 5564 5565 5566 5570 5572 5572 5567 5565 5556 5545 5550 5577 5573 5568 5600 5596 5595 5596 5593
5574 5573 5572 5572 5573 5574 5574 5575 5579 5583 5586 5585 5578 5580 5582 5583 5585 5580 5580 5576 5576 5573 5568 5575 5574 5574 5569 5571 5571 5571 5566 5569 5570 5570 5569 5566 5562 5549 5534 5559 5551 5607 5614 5610 5604 5605 5598
5572 5571 5570 5569 5569 5571 5572 5574 5573 5576 5580 5584 5581 5578 5584 5586 5586 5583 5581 5582 5583 5580 5576 5579 5583 5577 5575 5573 5573 5578 5576 5576 5577 5574 5571 5568 5564 5543 5532 5553 5588 5613 5602 5601 5599 5602 5606
5568 5567 5567 5566 5566 5566 5567 5570 5571 5572 5574 5578 5575 5576 5577 5580 5588 5588 5584 5585 5581 5588 5583 5582 5580 5578 5576 5577 5579 5580 5578 5585 5578 5567 5570 5568 5562 5548 5559 5562 5575 5612 5607 5607 5605 5585 5613
5563 5563 5564 5564 5563 5564 5563 5564 5566 5568 5571 5571 5569 5570 5575 5581 5589 5588 5584 5583 5582 5579 5579 5584 5583 5576 5578 5577 5574 5576 5575 5586 5576 5583 5552 5548 5548 5543 5542 5550 5584 5614 5604 5604 5593 5599 5611
5558 5557 5558 5559 5559 5559 5559 5561 5562 5563 5564 5568 5567 5566 5564 5570 5580 5584 5584 5582 5578 5574 5575 5575 5573 5571 5572 5571 5577 5580 5576 5583 5581 5594 5583 5570 5554 5549 5552 5556 5563 5608 5601 5596 5609 5610 5608
5553 5552 5553 5553 5554 5552 5553 5555 5558 5558 5559 5562 5565 5563 5561 5559 5573 5577 5579 5578 5575 5571 5571 5574 5570 5574 5574 5570 5572 5576 5570 5578 5580 5572 5599 5580 5595 5591 5587 5594 5612 5608 5615 5613 5611 5606 5603